Home   Weather   Cape Coral   Past weeks
Flag for USA

Past Weather in Cape Coral, Florida, USA — Yesterday and Last 2 Weeks

Now
76 °F

Clear.


Feels Like: 77 °F
Forecast: 92 / 72 °F
Wind: 10 mph from East

Location: Page Field

Current Time: May 25, 2019 at 11:24:20 pm

Latest Report: May 25, 2019 at 10:53 pm


Visibility: 10 mi

Pressure: 30.12 "Hg

Humidity: 74%

Dew Point: 67 °F

Location of Cape CoralLocation

Past Weather in Cape Coral — Graph

°F

Cape Coral Temperature Yesterday

Maximum temperature yesterday: 89 °F (at 2:53 pm)
Minimum temperature yesterday: 68 °F (at 5:53 am)
Average temperature yesterday: 78 °F

High & Low Weather Summary for the Past Weeks

 TemperatureHumidityPressure
High90 °F (May 19, 1:53 pm)97% (May 10, 9:53 pm)30.13 "Hg (May 10, 9:53 pm)
Low67 °F (May 18, 4:53 am)34% (May 18, 1:53 pm)29.87 "Hg (May 12, 4:53 pm)
Average79 °F72%29.99 "Hg
* Reported May 10 9:53 pm — May 25 9:53 pm, Cape Coral. Weather by CustomWeather, © 2019

Note: Actual official high and low records may vary slightly from our data, if they occured in-between our weather recording intervals... More about our weather records

Advertising

Cape Coral Weather History for the Previous 24 Hours

Scroll right to see more
 ConditionsComfort  
Time TempWeatherWind HumidityBarometerVisibility
9:53 pm
Sat, May 25
78 °FClear.8 mph69%30.10 "Hg10 mi
8:53 pm79 °FClear.12 mph67%30.09 "Hg10 mi
7:53 pm82 °FSunny.14 mph60%30.07 "Hg10 mi
6:53 pm86 °FPassing clouds.13 mph51%30.05 "Hg10 mi
5:53 pm88 °FSunny.9 mph46%30.04 "Hg10 mi
4:53 pm89 °FSunny.15 mph45%30.04 "Hg10 mi
3:53 pm90 °FSunny.13 mph45%30.05 "Hg10 mi
2:53 pm87 °FPartly sunny.13 mph50%30.06 "Hg10 mi
1:53 pm88 °FPassing clouds.12 mph50%30.08 "Hg10 mi
12:53 pm86 °FPassing clouds.8 mph51%30.09 "Hg10 mi
11:53 am84 °FSunny.12 mph57%30.09 "Hg10 mi
10:53 am81 °FSunny.12 mph60%30.10 "Hg10 mi
9:53 am79 °FSunny.10 mph67%30.10 "Hg10 mi
8:53 am76 °FSunny.9 mph74%30.09 "Hg10 mi
7:53 am71 °FSunny.6 mph87%30.09 "Hg10 mi
6:53 am69 °FSunny.6 mph90%30.06 "Hg10 mi
5:53 am69 °FClear.6 mph90%30.06 "Hg10 mi
4:53 am69 °FClear.6 mph90%30.06 "Hg10 mi
3:53 am70 °FClear.5 mph87%30.06 "Hg10 mi
2:53 am71 °FClear.3 mph84%30.08 "Hg10 mi
1:53 am71 °FClear.5 mph84%30.09 "Hg10 mi
12:53 am72 °FClear.6 mph78%30.11 "Hg10 mi
11:53 pm
Fri, May 24
73 °FClear.7 mph76%30.11 "Hg10 mi
Weather by CustomWeather, © 2019

See weather overview